sat.trackr.live / text

‹ back to catalog

PROBA-3 OSC

NORAD 62258 · 2024-233C

PAYLOAD ACTIVE UNKNOWN

§ Identity

Operator
Country
ESA
Launch date
2024-12-05
Launch site
SRILR
Launch vehicle
Mass (kg)
RCS (m²)

External: N2YO · Heavens-Above · Gunter

§ Orbital elements

Epoch: 2026-05-23T17:39:45.369792Z

Period
1,179.61 min
Inclination
59.6991°
Eccentricity
0.8005505
Mean motion
1.22073745 rev/d
Perigee alt
997.8 km
Apogee alt
60,209.3 km
Semi-major
36,981.7 km
B*
5.7230e-3
RAAN
99.5464°
Arg perigee
204.8721°
Mean anomaly
70.7768°
Rev number
651

§ Raw data

PROBA-3 OSC1 62258U 24233C   26143.73594178 -.00000097  00000+0  57230-2 0  99922 62258  59.6991  99.5464 8005505 204.8721  70.7768  1.22073745  6516

JSON: /api/v1/satellites/62258 · /tle

For live sub-satellite position, see the globe view (requires WebGL).

§ Visibility from observer

Set your observer location to see the next 7 days of passes ≥ 10°. The values pass through the URL so the page stays shareable.

No JS? Fill the form by hand. The geolocation button needs JavaScript.